Year,Month,Day,Hour,Minute,Value (Times are PST for temperature in C)
2006,05,02,00,00,7.40
2006,05,02,00,01,7.40
2006,05,02,00,02,7.40
2006,05,02,00,03,7.40
2006,05,02,00,04,7.40
2006,05,02,00,05,7.40
2006,05,02,00,06,7.40
2006,05,02,00,07,7.40
2006,05,02,00,08,7.40
2006,05,02,00,09,7.40
2006,05,02,00,10,7.40
2006,05,02,00,11,7.40
2006,05,02,00,12,7.40
2006,05,02,00,13,7.40
2006,05,02,00,14,7.40
2006,05,02,00,15,7.40
2006,05,02,00,16,7.40
2006,05,02,00,17,7.40
2006,05,02,00,18,7.40
2006,05,02,00,19,7.40
2006,05,02,00,20,7.40
2006,05,02,00,21,7.40
2006,05,02,00,22,7.40
2006,05,02,00,23,7.40
2006,05,02,00,24,7.40
2006,05,02,00,25,7.40
2006,05,02,00,26,7.30
2006,05,02,00,27,7.30
2006,05,02,00,28,7.30
2006,05,02,00,29,7.30
2006,05,02,00,30,7.30
2006,05,02,00,31,7.30
2006,05,02,00,32,7.30
2006,05,02,00,33,7.30
2006,05,02,00,34,7.30
2006,05,02,00,35,7.30
2006,05,02,00,36,7.30
2006,05,02,00,37,7.30
2006,05,02,00,38,7.30
2006,05,02,00,39,7.30
2006,05,02,00,40,7.30
2006,05,02,00,41,7.30
2006,05,02,00,42,7.30
2006,05,02,00,43,7.30
2006,05,02,00,44,7.30
2006,05,02,00,45,7.30
2006,05,02,00,46,7.30
2006,05,02,00,47,7.30
2006,05,02,00,48,7.30
2006,05,02,00,49,7.30
2006,05,02,00,50,7.30
2006,05,02,00,51,7.30
2006,05,02,00,52,7.20
2006,05,02,00,53,7.20
2006,05,02,00,54,7.20
2006,05,02,00,55,7.10
2006,05,02,00,56,7.10
2006,05,02,00,57,7.00
2006,05,02,00,58,7.00
2006,05,02,00,59,6.90
2006,05,02,01,00,6.90
2006,05,02,01,01,6.90
2006,05,02,01,02,6.90
2006,05,02,01,03,6.90
2006,05,02,01,04,6.90
2006,05,02,01,05,6.90
2006,05,02,01,06,6.90
2006,05,02,01,07,6.90
2006,05,02,01,08,6.90
2006,05,02,01,09,6.90
2006,05,02,01,10,6.90
2006,05,02,01,11,6.90
2006,05,02,01,12,6.80
2006,05,02,01,13,6.80
2006,05,02,01,14,6.70
2006,05,02,01,15,6.60
2006,05,02,01,16,6.50
2006,05,02,01,17,6.40
2006,05,02,01,18,6.40
2006,05,02,01,19,6.40
2006,05,02,01,20,6.40
2006,05,02,01,21,6.40
2006,05,02,01,22,6.50
2006,05,02,01,23,6.60
2006,05,02,01,24,6.60
2006,05,02,01,25,6.60
2006,05,02,01,26,6.60
2006,05,02,01,27,6.60
2006,05,02,01,28,6.70
2006,05,02,01,29,6.70
2006,05,02,01,30,6.70
2006,05,02,01,31,6.70
2006,05,02,01,32,6.70
2006,05,02,01,33,6.70
2006,05,02,01,34,6.60
2006,05,02,01,35,6.60
2006,05,02,01,36,6.40
2006,05,02,01,37,6.30
2006,05,02,01,38,6.20
2006,05,02,01,39,6.10
2006,05,02,01,40,6.00
2006,05,02,01,41,5.90
2006,05,02,01,42,5.80
2006,05,02,01,43,5.80
2006,05,02,01,44,5.70
2006,05,02,01,45,5.70
2006,05,02,01,46,5.70
2006,05,02,01,47,5.60
2006,05,02,01,48,5.60
2006,05,02,01,49,5.60
2006,05,02,01,50,5.50
2006,05,02,01,51,5.50
2006,05,02,01,52,5.50
2006,05,02,01,53,5.40
2006,05,02,01,54,5.40
2006,05,02,01,55,5.40
2006,05,02,01,56,5.30
2006,05,02,01,57,5.40
2006,05,02,01,58,5.40
2006,05,02,01,59,5.40
2006,05,02,02,00,5.40
2006,05,02,02,01,5.40
2006,05,02,02,02,5.40
2006,05,02,02,03,5.40
2006,05,02,02,04,5.40
2006,05,02,02,05,5.40
2006,05,02,02,06,5.40
2006,05,02,02,07,5.40
2006,05,02,02,08,5.40
2006,05,02,02,09,5.30
2006,05,02,02,10,5.30
2006,05,02,02,11,5.20
2006,05,02,02,12,5.20
2006,05,02,02,13,5.20
2006,05,02,02,14,5.20
2006,05,02,02,15,5.20
2006,05,02,02,16,5.20
2006,05,02,02,17,5.10
2006,05,02,02,18,5.10
2006,05,02,02,19,5.10
2006,05,02,02,20,5.20
2006,05,02,02,21,5.20
2006,05,02,02,22,5.20
2006,05,02,02,23,5.20
2006,05,02,02,24,5.20
2006,05,02,02,25,5.30
2006,05,02,02,26,5.30
2006,05,02,02,27,5.30
2006,05,02,02,28,5.30
2006,05,02,02,29,5.30
2006,05,02,02,30,5.30
2006,05,02,02,31,5.20
2006,05,02,02,32,5.10
2006,05,02,02,33,5.00
2006,05,02,02,34,4.90
2006,05,02,02,35,4.90
2006,05,02,02,36,4.80
2006,05,02,02,37,4.80
2006,05,02,02,38,4.70
2006,05,02,02,39,4.70
2006,05,02,02,40,4.70
2006,05,02,02,41,4.70
2006,05,02,02,42,4.70
2006,05,02,02,43,4.60
2006,05,02,02,44,4.60
2006,05,02,02,45,4.60
2006,05,02,02,46,4.60
2006,05,02,02,47,4.60
2006,05,02,02,48,4.60
2006,05,02,02,49,4.60
2006,05,02,02,50,4.60
2006,05,02,02,51,4.60
2006,05,02,02,52,4.60
2006,05,02,02,53,4.50
2006,05,02,02,54,4.50
2006,05,02,02,55,4.50
2006,05,02,02,56,4.40
2006,05,02,02,57,4.40
2006,05,02,02,58,4.40
2006,05,02,02,59,4.40
2006,05,02,03,00,4.40
2006,05,02,03,01,4.40
2006,05,02,03,02,4.40
2006,05,02,03,03,4.30
2006,05,02,03,04,4.30
2006,05,02,03,05,4.30
2006,05,02,03,06,4.30
2006,05,02,03,07,4.30
2006,05,02,03,08,4.30
2006,05,02,03,09,4.30
2006,05,02,03,10,4.30
2006,05,02,03,11,4.30
2006,05,02,03,12,4.30
2006,05,02,03,13,4.30
2006,05,02,03,14,4.30
2006,05,02,03,15,4.30
2006,05,02,03,16,4.30
2006,05,02,03,17,4.30
2006,05,02,03,18,4.30
2006,05,02,03,19,4.30
2006,05,02,03,20,4.30
2006,05,02,03,21,4.20
2006,05,02,03,22,4.20
2006,05,02,03,23,4.20
2006,05,02,03,24,4.20
2006,05,02,03,25,4.10
2006,05,02,03,26,4.10
2006,05,02,03,27,4.10
2006,05,02,03,28,4.10
2006,05,02,03,29,4.00
2006,05,02,03,30,4.00
2006,05,02,03,31,4.00
2006,05,02,03,32,4.00
2006,05,02,03,33,3.90
2006,05,02,03,34,3.90
2006,05,02,03,35,3.90
2006,05,02,03,36,3.90
2006,05,02,03,37,3.80
2006,05,02,03,38,3.80
2006,05,02,03,39,3.80
2006,05,02,03,40,3.80
2006,05,02,03,41,3.80
2006,05,02,03,42,3.80
2006,05,02,03,43,3.80
2006,05,02,03,44,3.80
2006,05,02,03,45,3.80
2006,05,02,03,46,3.80
2006,05,02,03,47,3.80
2006,05,02,03,48,3.80
2006,05,02,03,49,3.70
2006,05,02,03,50,3.70
2006,05,02,03,51,3.70
2006,05,02,03,52,3.70
2006,05,02,03,53,3.70
2006,05,02,03,54,3.70
2006,05,02,03,55,3.70
2006,05,02,03,56,3.80
2006,05,02,03,57,3.80
2006,05,02,03,58,3.70
2006,05,02,03,59,3.70
2006,05,02,04,00,3.70
2006,05,02,04,01,3.70
2006,05,02,04,02,3.70
2006,05,02,04,03,3.70
2006,05,02,04,04,3.70
2006,05,02,04,05,3.60
2006,05,02,04,06,3.60
2006,05,02,04,07,3.60
2006,05,02,04,08,3.60
2006,05,02,04,09,3.60
2006,05,02,04,10,3.50
2006,05,02,04,11,3.50
2006,05,02,04,12,3.50
2006,05,02,04,13,3.50
2006,05,02,04,14,3.50
2006,05,02,04,15,3.40
2006,05,02,04,16,3.30
2006,05,02,04,17,3.30
2006,05,02,04,18,3.30
2006,05,02,04,19,3.20
2006,05,02,04,20,3.20
2006,05,02,04,21,3.20
2006,05,02,04,22,3.20
2006,05,02,04,23,3.20
2006,05,02,04,24,3.20
2006,05,02,04,25,3.20
2006,05,02,04,26,3.20
2006,05,02,04,27,3.10
2006,05,02,04,28,3.10
2006,05,02,04,29,3.10
2006,05,02,04,30,3.10
2006,05,02,04,31,3.10
2006,05,02,04,32,3.10
2006,05,02,04,33,3.10
2006,05,02,04,34,3.10
2006,05,02,04,35,3.10
2006,05,02,04,36,3.10
2006,05,02,04,37,3.10
2006,05,02,04,38,3.20
2006,05,02,04,39,3.10
2006,05,02,04,40,3.10
2006,05,02,04,41,3.10
2006,05,02,04,42,3.10
2006,05,02,04,43,3.10
2006,05,02,04,44,3.10
2006,05,02,04,45,3.10
2006,05,02,04,46,3.10
2006,05,02,04,47,3.10
2006,05,02,04,48,3.10
2006,05,02,04,49,3.10
2006,05,02,04,50,3.10
2006,05,02,04,51,3.10
2006,05,02,04,52,3.10
2006,05,02,04,53,3.10
2006,05,02,04,54,3.10
2006,05,02,04,55,3.10
2006,05,02,04,56,3.10
2006,05,02,04,57,3.10
2006,05,02,04,58,3.10
2006,05,02,04,59,3.20
2006,05,02,05,00,3.20
2006,05,02,05,01,3.20
2006,05,02,05,02,3.20
2006,05,02,05,03,3.20
2006,05,02,05,04,3.20
2006,05,02,05,05,3.20
2006,05,02,05,06,3.20
2006,05,02,05,07,3.10
2006,05,02,05,08,3.10
2006,05,02,05,09,3.10
2006,05,02,05,10,3.10
2006,05,02,05,11,3.10
2006,05,02,05,12,3.10
2006,05,02,05,13,3.10
2006,05,02,05,14,3.10
2006,05,02,05,15,3.10
2006,05,02,05,16,3.00
2006,05,02,05,17,2.90
2006,05,02,05,18,2.90
2006,05,02,05,19,2.90
2006,05,02,05,20,2.90
2006,05,02,05,21,2.90
2006,05,02,05,22,2.90
2006,05,02,05,23,2.90
2006,05,02,05,24,2.90
2006,05,02,05,25,2.90
2006,05,02,05,26,2.90
2006,05,02,05,27,2.90
2006,05,02,05,28,2.90
2006,05,02,05,29,2.90
2006,05,02,05,30,2.90
2006,05,02,05,31,2.90
2006,05,02,05,32,2.80
2006,05,02,05,33,2.80
2006,05,02,05,34,2.80
2006,05,02,05,35,2.80
2006,05,02,05,36,2.80
2006,05,02,05,37,2.80
2006,05,02,05,38,2.80
2006,05,02,05,39,2.80
2006,05,02,05,40,2.80
2006,05,02,05,41,2.80
2006,05,02,05,42,2.80
2006,05,02,05,43,2.80
2006,05,02,05,44,2.90
2006,05,02,05,45,2.90
2006,05,02,05,46,2.90
2006,05,02,05,47,2.90
2006,05,02,05,48,2.90
2006,05,02,05,49,2.90
2006,05,02,05,50,2.90
2006,05,02,05,51,2.90
2006,05,02,05,52,2.90
2006,05,02,05,53,2.90
2006,05,02,05,54,2.90
2006,05,02,05,55,2.90
2006,05,02,05,56,2.90
2006,05,02,05,57,3.00
2006,05,02,05,58,3.10
2006,05,02,05,59,3.10
2006,05,02,06,00,3.10
2006,05,02,06,01,3.10
2006,05,02,06,02,3.10
2006,05,02,06,03,3.10
2006,05,02,06,04,3.10
2006,05,02,06,05,3.20
2006,05,02,06,06,3.20
2006,05,02,06,07,3.20
2006,05,02,06,08,3.30
2006,05,02,06,09,3.30
2006,05,02,06,10,3.30
2006,05,02,06,11,3.30
2006,05,02,06,12,3.40
2006,05,02,06,13,3.40
2006,05,02,06,14,3.40
2006,05,02,06,15,3.50
2006,05,02,06,16,3.50
2006,05,02,06,17,3.50
2006,05,02,06,18,3.60
2006,05,02,06,19,3.60
2006,05,02,06,20,3.60
2006,05,02,06,21,3.60
2006,05,02,06,22,3.70
2006,05,02,06,23,3.70
2006,05,02,06,24,3.80
2006,05,02,06,25,3.80
2006,05,02,06,26,3.80
2006,05,02,06,27,3.80
2006,05,02,06,28,3.80
2006,05,02,06,29,3.80
2006,05,02,06,30,3.80
2006,05,02,06,31,3.80
2006,05,02,06,32,3.80
2006,05,02,06,33,3.80
2006,05,02,06,34,3.80
2006,05,02,06,35,3.80
2006,05,02,06,36,3.80
2006,05,02,06,37,3.80
2006,05,02,06,38,3.80
2006,05,02,06,39,3.80
2006,05,02,06,40,3.80
2006,05,02,06,41,3.80
2006,05,02,06,42,3.80
2006,05,02,06,43,3.80
2006,05,02,06,44,3.80
2006,05,02,06,45,3.80
2006,05,02,06,46,3.80
2006,05,02,06,47,3.80
2006,05,02,06,48,3.80
2006,05,02,06,49,3.90
2006,05,02,06,50,3.90
2006,05,02,06,51,3.90
2006,05,02,06,52,4.00
2006,05,02,06,53,4.00
2006,05,02,06,54,4.00
2006,05,02,06,55,4.00
2006,05,02,06,56,4.10
2006,05,02,06,57,4.10
2006,05,02,06,58,4.20
2006,05,02,06,59,4.20
2006,05,02,07,00,4.20
2006,05,02,07,01,4.30
2006,05,02,07,02,4.40
2006,05,02,07,03,4.40
2006,05,02,07,04,4.50
2006,05,02,07,05,4.60
2006,05,02,07,06,4.70
2006,05,02,07,07,4.80
2006,05,02,07,08,4.90
2006,05,02,07,09,5.00
2006,05,02,07,10,5.10
2006,05,02,07,11,5.20
2006,05,02,07,12,5.30
2006,05,02,07,13,5.40
2006,05,02,07,14,5.50
2006,05,02,07,15,5.60
2006,05,02,07,16,5.70
2006,05,02,07,17,5.70
2006,05,02,07,18,5.90
2006,05,02,07,19,5.90
2006,05,02,07,20,6.00
2006,05,02,07,21,6.10
2006,05,02,07,22,6.20
2006,05,02,07,23,6.20
2006,05,02,07,24,6.30
2006,05,02,07,25,6.40
2006,05,02,07,26,6.40
2006,05,02,07,27,6.50
2006,05,02,07,28,6.60
2006,05,02,07,29,6.60
2006,05,02,07,30,6.60
2006,05,02,07,31,6.60
2006,05,02,07,32,6.60
2006,05,02,07,33,6.60
2006,05,02,07,34,6.60
2006,05,02,07,35,6.70
2006,05,02,07,36,6.70
2006,05,02,07,37,6.80
2006,05,02,07,38,6.80
2006,05,02,07,39,6.80
2006,05,02,07,40,6.80
2006,05,02,07,41,6.80
2006,05,02,07,42,6.80
2006,05,02,07,43,6.80
2006,05,02,07,44,6.90
2006,05,02,07,45,6.90
2006,05,02,07,46,6.90
2006,05,02,07,47,6.90
2006,05,02,07,48,6.90
2006,05,02,07,49,7.00
2006,05,02,07,50,7.00
2006,05,02,07,51,7.10
2006,05,02,07,52,7.10
2006,05,02,07,53,7.20
2006,05,02,07,54,7.20
2006,05,02,07,55,7.30
2006,05,02,07,56,7.30
2006,05,02,07,57,7.30
2006,05,02,07,58,7.40
2006,05,02,07,59,7.40
2006,05,02,08,00,7.50
2006,05,02,08,01,7.50
2006,05,02,08,02,7.60
2006,05,02,08,03,7.60
2006,05,02,08,04,7.60
2006,05,02,08,05,7.70
2006,05,02,08,06,7.70
2006,05,02,08,07,7.80
2006,05,02,08,08,7.80
2006,05,02,08,09,7.80
2006,05,02,08,10,7.80
2006,05,02,08,11,7.80
2006,05,02,08,12,7.80
2006,05,02,08,13,7.80
2006,05,02,08,14,7.90
2006,05,02,08,15,7.90
2006,05,02,08,16,7.90
2006,05,02,08,17,8.00
2006,05,02,08,18,8.00
2006,05,02,08,19,8.10
2006,05,02,08,20,8.20
2006,05,02,08,21,8.20
2006,05,02,08,22,8.20
2006,05,02,08,23,8.30
2006,05,02,08,24,8.30
2006,05,02,08,25,8.30
2006,05,02,08,26,8.40
2006,05,02,08,27,8.40
2006,05,02,08,28,8.40
2006,05,02,08,29,8.50
2006,05,02,08,30,8.50
2006,05,02,08,31,8.50
2006,05,02,08,32,8.50
2006,05,02,08,33,8.50
2006,05,02,08,34,8.60
2006,05,02,08,35,8.60
2006,05,02,08,36,8.60
2006,05,02,08,37,8.70
2006,05,02,08,38,8.70
2006,05,02,08,39,8.70
2006,05,02,08,40,8.70
2006,05,02,08,41,8.70
2006,05,02,08,42,8.80
2006,05,02,08,43,8.80
2006,05,02,08,44,8.90
2006,05,02,08,45,8.90
2006,05,02,08,46,8.90
2006,05,02,08,47,9.00
2006,05,02,08,48,9.00
2006,05,02,08,49,9.10
2006,05,02,08,50,9.00
2006,05,02,08,51,9.00
2006,05,02,08,52,9.00
2006,05,02,08,53,9.00
2006,05,02,08,54,9.00
2006,05,02,08,55,9.00
2006,05,02,08,56,9.00
2006,05,02,08,57,9.00
2006,05,02,08,58,9.10
2006,05,02,08,59,9.10
2006,05,02,09,00,9.20
2006,05,02,09,01,9.10
2006,05,02,09,02,9.10
2006,05,02,09,03,9.10
2006,05,02,09,04,9.10
2006,05,02,09,05,9.10
2006,05,02,09,06,9.10
2006,05,02,09,07,9.20
2006,05,02,09,08,9.20
2006,05,02,09,09,9.20
2006,05,02,09,10,9.30
2006,05,02,09,11,9.30
2006,05,02,09,12,9.30
2006,05,02,09,13,9.30
2006,05,02,09,14,9.30
2006,05,02,09,15,9.30
2006,05,02,09,16,9.40
2006,05,02,09,17,9.50
2006,05,02,09,18,9.50
2006,05,02,09,19,9.60
2006,05,02,09,20,9.60
2006,05,02,09,21,9.70
2006,05,02,09,22,9.70
2006,05,02,09,23,9.70
2006,05,02,09,24,9.80
2006,05,02,09,25,9.80
2006,05,02,09,26,9.80
2006,05,02,09,27,9.90
2006,05,02,09,28,9.90
2006,05,02,09,29,9.90
2006,05,02,09,30,9.90
2006,05,02,09,31,9.90
2006,05,02,09,32,9.90
2006,05,02,09,33,9.90
2006,05,02,09,34,9.90
2006,05,02,09,35,9.90
2006,05,02,09,36,9.90
2006,05,02,09,37,9.90
2006,05,02,09,38,9.90
2006,05,02,09,39,10.00
2006,05,02,09,40,10.10
2006,05,02,09,41,10.10
2006,05,02,09,42,10.10
2006,05,02,09,43,10.00
2006,05,02,09,44,9.90
2006,05,02,09,45,9.90
2006,05,02,09,46,9.90
2006,05,02,09,47,9.80
2006,05,02,09,48,9.70
2006,05,02,09,49,9.70
2006,05,02,09,50,9.70
2006,05,02,09,51,9.70
2006,05,02,09,52,9.70
2006,05,02,09,53,9.70
2006,05,02,09,54,9.70
2006,05,02,09,55,9.70
2006,05,02,09,56,9.70
2006,05,02,09,57,9.80
2006,05,02,09,58,9.80
2006,05,02,09,59,9.80
2006,05,02,10,00,9.90
2006,05,02,10,01,9.90
2006,05,02,10,02,9.90
2006,05,02,10,03,9.90
2006,05,02,10,04,9.90
2006,05,02,10,05,9.90
2006,05,02,10,06,10.10
2006,05,02,10,07,10.10
2006,05,02,10,08,10.10
2006,05,02,10,09,10.10
2006,05,02,10,10,10.10
2006,05,02,10,11,10.10
2006,05,02,10,12,10.20
2006,05,02,10,13,10.20
2006,05,02,10,14,10.20
2006,05,02,10,15,10.10
2006,05,02,10,16,10.10
2006,05,02,10,17,10.10
2006,05,02,10,18,10.10
2006,05,02,10,19,10.10
2006,05,02,10,20,10.10
2006,05,02,10,21,10.10
2006,05,02,10,22,10.10
2006,05,02,10,23,10.10
2006,05,02,10,24,10.10
2006,05,02,10,25,10.10
2006,05,02,10,26,10.20
2006,05,02,10,27,10.20
2006,05,02,10,28,10.20
2006,05,02,10,29,10.30
2006,05,02,10,30,10.40
2006,05,02,10,31,10.40
2006,05,02,10,32,10.40
2006,05,02,10,33,10.40
2006,05,02,10,34,10.40
2006,05,02,10,35,10.40
2006,05,02,10,36,10.60
2006,05,02,10,37,10.60
2006,05,02,10,38,10.60
2006,05,02,10,39,10.60
2006,05,02,10,40,10.60
2006,05,02,10,41,10.70
2006,05,02,10,42,10.70
2006,05,02,10,43,10.70
2006,05,02,10,44,10.60
2006,05,02,10,45,10.60
2006,05,02,10,46,10.60
2006,05,02,10,47,10.60
2006,05,02,10,48,10.60
2006,05,02,10,49,10.70
2006,05,02,10,50,10.80
2006,05,02,10,51,10.80
2006,05,02,10,52,10.70
2006,05,02,10,53,10.70
2006,05,02,10,54,10.60
2006,05,02,10,55,10.60
2006,05,02,10,56,10.60
2006,05,02,10,57,10.60
2006,05,02,10,58,10.70
2006,05,02,10,59,10.70
2006,05,02,11,00,10.70
2006,05,02,11,01,10.80
2006,05,02,11,02,10.90
2006,05,02,11,03,10.90
2006,05,02,11,04,10.90
2006,05,02,11,05,11.00
2006,05,02,11,06,11.10
2006,05,02,11,07,11.10
2006,05,02,11,08,11.10
2006,05,02,11,09,11.10
2006,05,02,11,10,11.10
2006,05,02,11,11,11.00
2006,05,02,11,12,11.00
2006,05,02,11,13,11.10
2006,05,02,11,14,11.10
2006,05,02,11,15,11.10
2006,05,02,11,16,11.10
2006,05,02,11,17,11.10
2006,05,02,11,18,11.20
2006,05,02,11,19,11.20
2006,05,02,11,20,11.30
2006,05,02,11,21,11.30
2006,05,02,11,22,11.30
2006,05,02,11,23,11.30
2006,05,02,11,24,11.30
2006,05,02,11,25,11.40
2006,05,02,11,26,11.40
2006,05,02,11,27,11.40
2006,05,02,11,28,11.40
2006,05,02,11,29,11.40
2006,05,02,11,30,11.40
2006,05,02,11,31,11.40
2006,05,02,11,32,11.40
2006,05,02,11,33,11.50
2006,05,02,11,34,11.40
2006,05,02,11,35,11.40
2006,05,02,11,36,11.30
2006,05,02,11,37,11.20
2006,05,02,11,38,11.20
2006,05,02,11,39,11.20
2006,05,02,11,40,11.20
2006,05,02,11,41,11.30
2006,05,02,11,42,11.40
2006,05,02,11,43,11.50
2006,05,02,11,44,11.60
2006,05,02,11,45,11.60
2006,05,02,11,46,11.60
2006,05,02,11,47,11.60
2006,05,02,11,48,11.60
2006,05,02,11,49,11.60
2006,05,02,11,50,11.60
2006,05,02,11,51,11.60
2006,05,02,11,52,11.60
2006,05,02,11,53,11.60
2006,05,02,11,54,11.60
2006,05,02,11,55,11.60
2006,05,02,11,56,11.60
2006,05,02,11,57,11.60
2006,05,02,11,58,11.70
2006,05,02,11,59,11.70
2006,05,02,12,00,11.80
2006,05,02,12,01,11.90
2006,05,02,12,02,12.00
2006,05,02,12,03,12.00
2006,05,02,12,04,12.00
2006,05,02,12,05,12.10
2006,05,02,12,06,12.10
2006,05,02,12,07,12.10
2006,05,02,12,08,12.20
2006,05,02,12,09,12.00
2006,05,02,12,10,11.90
2006,05,02,12,11,11.90
2006,05,02,12,12,11.90
2006,05,02,12,13,11.90
2006,05,02,12,14,11.90
2006,05,02,12,15,11.80
2006,05,02,12,16,11.80
2006,05,02,12,17,11.90
2006,05,02,12,18,12.00
2006,05,02,12,19,12.00
2006,05,02,12,20,12.10
2006,05,02,12,21,12.20
2006,05,02,12,22,12.20
2006,05,02,12,23,12.10
2006,05,02,12,24,12.10
2006,05,02,12,25,12.00
2006,05,02,12,26,12.00
2006,05,02,12,27,12.10
2006,05,02,12,28,12.10
2006,05,02,12,29,12.10
2006,05,02,12,30,12.10
2006,05,02,12,31,12.10
2006,05,02,12,32,12.20
2006,05,02,12,33,12.20
2006,05,02,12,34,12.30
2006,05,02,12,35,12.30
2006,05,02,12,36,12.30
2006,05,02,12,37,12.30
2006,05,02,12,38,12.20
2006,05,02,12,39,12.20
2006,05,02,12,40,12.30
2006,05,02,12,41,12.30
2006,05,02,12,42,12.30
2006,05,02,12,43,12.30
2006,05,02,12,44,12.30
2006,05,02,12,45,12.30
2006,05,02,12,46,12.20
2006,05,02,12,47,12.30
2006,05,02,12,48,12.40
2006,05,02,12,49,12.50
2006,05,02,12,50,12.60
2006,05,02,12,51,12.50
2006,05,02,12,52,12.50
2006,05,02,12,53,12.50
2006,05,02,12,54,12.40
2006,05,02,12,55,12.30
2006,05,02,12,56,12.30
2006,05,02,12,57,12.30
2006,05,02,12,58,12.30
2006,05,02,12,59,12.50
2006,05,02,13,00,12.60
2006,05,02,13,01,12.70
2006,05,02,13,02,12.80
2006,05,02,13,03,12.80
2006,05,02,13,04,12.80
2006,05,02,13,05,12.80
2006,05,02,13,06,12.80
2006,05,02,13,07,12.80
2006,05,02,13,08,12.90
2006,05,02,13,09,13.00
2006,05,02,13,10,13.00
2006,05,02,13,11,13.00
2006,05,02,13,12,13.00
2006,05,02,13,13,13.10
2006,05,02,13,14,13.10
2006,05,02,13,15,13.20
2006,05,02,13,16,13.30
2006,05,02,13,17,13.30
2006,05,02,13,18,13.30
2006,05,02,13,19,13.30
2006,05,02,13,20,13.30
2006,05,02,13,21,13.30
2006,05,02,13,22,13.30
2006,05,02,13,23,13.30
2006,05,02,13,24,13.30
2006,05,02,13,25,13.30
2006,05,02,13,26,13.30
2006,05,02,13,27,13.40
2006,05,02,13,28,13.50
2006,05,02,13,29,13.50
2006,05,02,13,30,13.60
2006,05,02,13,31,13.50
2006,05,02,13,32,13.40
2006,05,02,13,33,13.40
2006,05,02,13,34,13.40
2006,05,02,13,35,13.30
2006,05,02,13,36,13.40
2006,05,02,13,37,13.50
2006,05,02,13,38,13.50
2006,05,02,13,39,13.60
2006,05,02,13,40,13.70
2006,05,02,13,41,13.70
2006,05,02,13,42,13.70
2006,05,02,13,43,13.70
2006,05,02,13,44,13.70
2006,05,02,13,45,13.70
2006,05,02,13,46,13.60
2006,05,02,13,47,13.50
2006,05,02,13,48,13.50
2006,05,02,13,49,13.40
2006,05,02,13,50,13.30
2006,05,02,13,51,13.30
2006,05,02,13,52,13.30
2006,05,02,13,53,13.30
2006,05,02,13,54,13.40
2006,05,02,13,55,13.50
2006,05,02,13,56,13.60
2006,05,02,13,57,13.60
2006,05,02,13,58,13.70
2006,05,02,13,59,13.70
2006,05,02,14,00,13.80
2006,05,02,14,01,13.80
2006,05,02,14,02,13.80
2006,05,02,14,03,13.80
2006,05,02,14,04,13.80
2006,05,02,14,05,13.80
2006,05,02,14,06,13.80
2006,05,02,14,07,13.90
2006,05,02,14,08,13.80
2006,05,02,14,09,13.70
2006,05,02,14,10,13.60
2006,05,02,14,11,13.60
2006,05,02,14,12,13.70
2006,05,02,14,13,13.90
2006,05,02,14,14,14.00
2006,05,02,14,15,14.10
2006,05,02,14,16,14.20
2006,05,02,14,17,14.10
2006,05,02,14,18,14.00
2006,05,02,14,19,14.00
2006,05,02,14,20,14.00
2006,05,02,14,21,14.00
2006,05,02,14,22,14.00
2006,05,02,14,23,14.00
2006,05,02,14,24,14.00
2006,05,02,14,25,14.10
2006,05,02,14,26,14.20
2006,05,02,14,27,14.20
2006,05,02,14,28,14.20
2006,05,02,14,29,14.20
2006,05,02,14,30,14.30
2006,05,02,14,31,14.30
2006,05,02,14,32,14.30
2006,05,02,14,33,14.40
2006,05,02,14,34,14.50
2006,05,02,14,35,14.40
2006,05,02,14,36,14.30
2006,05,02,14,37,14.20
2006,05,02,14,38,14.20
2006,05,02,14,39,14.20
2006,05,02,14,40,14.30
2006,05,02,14,41,14.40
2006,05,02,14,42,14.50
2006,05,02,14,43,14.70
2006,05,02,14,44,14.80
2006,05,02,14,45,14.80
2006,05,02,14,46,14.80
2006,05,02,14,47,14.80
2006,05,02,14,48,14.80
2006,05,02,14,49,14.70
2006,05,02,14,50,14.60
2006,05,02,14,51,14.60
2006,05,02,14,52,14.60
2006,05,02,14,53,14.60
2006,05,02,14,54,14.60
2006,05,02,14,55,14.60
2006,05,02,14,56,14.60
2006,05,02,14,57,14.60
2006,05,02,14,58,14.60
2006,05,02,14,59,14.60
2006,05,02,15,00,14.60
2006,05,02,15,01,14.60
2006,05,02,15,02,14.60
2006,05,02,15,03,14.60
2006,05,02,15,04,14.60
2006,05,02,15,05,14.70
2006,05,02,15,06,14.60
2006,05,02,15,07,14.70
2006,05,02,15,08,14.60
2006,05,02,15,09,14.60
2006,05,02,15,10,14.70
2006,05,02,15,11,14.60
2006,05,02,15,12,14.50
2006,05,02,15,13,14.50
2006,05,02,15,14,14.60
2006,05,02,15,15,14.60
2006,05,02,15,16,14.70
2006,05,02,15,17,14.80
2006,05,02,15,18,14.90
2006,05,02,15,19,15.00
2006,05,02,15,20,15.10
2006,05,02,15,21,15.10
2006,05,02,15,22,15.10
2006,05,02,15,23,15.10
2006,05,02,15,24,15.10
2006,05,02,15,25,15.10
2006,05,02,15,26,15.00
2006,05,02,15,27,15.00
2006,05,02,15,28,15.00
2006,05,02,15,29,14.90
2006,05,02,15,30,14.90
2006,05,02,15,31,14.90
2006,05,02,15,32,15.00
2006,05,02,15,33,15.10
2006,05,02,15,34,15.10
2006,05,02,15,35,15.20
2006,05,02,15,36,15.20
2006,05,02,15,37,15.10
2006,05,02,15,38,15.10
2006,05,02,15,39,15.00
2006,05,02,15,40,15.00
2006,05,02,15,41,15.00
2006,05,02,15,42,15.00
2006,05,02,15,43,14.90
2006,05,02,15,44,14.90
2006,05,02,15,45,15.00
2006,05,02,15,46,15.00
2006,05,02,15,47,15.00
2006,05,02,15,48,15.00
2006,05,02,15,49,15.10
2006,05,02,15,50,15.20
2006,05,02,15,51,15.20
2006,05,02,15,52,15.20
2006,05,02,15,53,15.30
2006,05,02,15,54,15.30
2006,05,02,15,55,15.20
2006,05,02,15,56,15.10
2006,05,02,15,57,15.10
2006,05,02,15,58,15.10
2006,05,02,15,59,15.10
2006,05,02,16,00,15.10
2006,05,02,16,01,15.20
2006,05,02,16,02,15.20
2006,05,02,16,03,15.30
2006,05,02,16,04,15.30
2006,05,02,16,05,15.40
2006,05,02,16,06,15.40
2006,05,02,16,07,15.40
2006,05,02,16,08,15.40
2006,05,02,16,09,15.50
2006,05,02,16,10,15.50
2006,05,02,16,11,15.50
2006,05,02,16,12,15.50
2006,05,02,16,13,15.50
2006,05,02,16,14,15.60
2006,05,02,16,15,15.60
2006,05,02,16,16,15.60
2006,05,02,16,17,15.60
2006,05,02,16,18,15.60
2006,05,02,16,19,15.70
2006,05,02,16,20,15.70
2006,05,02,16,21,15.80
2006,05,02,16,22,15.70
2006,05,02,16,23,15.70
2006,05,02,16,24,15.60
2006,05,02,16,25,15.60
2006,05,02,16,26,15.60
2006,05,02,16,27,15.50
2006,05,02,16,28,15.50
2006,05,02,16,29,15.50
2006,05,02,16,30,15.50
2006,05,02,16,31,15.50
2006,05,02,16,32,15.50
2006,05,02,16,33,15.60
2006,05,02,16,34,15.60
2006,05,02,16,35,15.60
2006,05,02,16,36,15.70
2006,05,02,16,37,15.70
2006,05,02,16,38,15.70
2006,05,02,16,39,15.70
2006,05,02,16,40,15.70
2006,05,02,16,41,15.70
2006,05,02,16,42,15.70
2006,05,02,16,43,15.60
2006,05,02,16,44,15.60
2006,05,02,16,45,15.50
2006,05,02,16,46,15.50
2006,05,02,16,47,15.50
2006,05,02,16,48,15.50
2006,05,02,16,49,15.60
2006,05,02,16,50,15.70
2006,05,02,16,51,15.70
2006,05,02,16,52,15.70
2006,05,02,16,53,15.70
2006,05,02,16,54,15.80
2006,05,02,16,55,15.80
2006,05,02,16,56,15.70
2006,05,02,16,57,15.70
2006,05,02,16,58,15.70
2006,05,02,16,59,15.70
2006,05,02,17,00,15.70
2006,05,02,17,01,15.80
2006,05,02,17,02,15.80
2006,05,02,17,03,15.80
2006,05,02,17,04,15.90
2006,05,02,17,05,15.90
2006,05,02,17,06,16.00
2006,05,02,17,07,16.00
2006,05,02,17,08,16.00
2006,05,02,17,09,16.10
2006,05,02,17,10,16.00
2006,05,02,17,11,15.90
2006,05,02,17,12,15.90
2006,05,02,17,13,15.90
2006,05,02,17,14,15.80
2006,05,02,17,15,15.80
2006,05,02,17,16,15.80
2006,05,02,17,17,15.80
2006,05,02,17,18,15.80
2006,05,02,17,19,15.80
2006,05,02,17,20,15.80
2006,05,02,17,21,15.80
2006,05,02,17,22,15.80
2006,05,02,17,23,15.80
2006,05,02,17,24,15.80
2006,05,02,17,25,15.90
2006,05,02,17,26,16.00
2006,05,02,17,27,16.10
2006,05,02,17,28,16.10
2006,05,02,17,29,16.20
2006,05,02,17,30,16.30
2006,05,02,17,31,16.20
2006,05,02,17,32,16.20
2006,05,02,17,33,16.10
2006,05,02,17,34,16.00
2006,05,02,17,35,15.90
2006,05,02,17,36,15.80
2006,05,02,17,37,15.80
2006,05,02,17,38,15.80
2006,05,02,17,39,15.80
2006,05,02,17,40,15.60
2006,05,02,17,41,15.60
2006,05,02,17,42,15.50
2006,05,02,17,43,15.50
2006,05,02,17,44,15.50
2006,05,02,17,45,15.50